(282969) = 2005 EP71 = 2007 SP4

Discovered at Farra d'Isonzo on 2007-09-20 by Farra d'Isonzo.

Orbit

Orbit type: Main Belt

Note: WebGL enabled browser required.

epoch2023-09-13.0
epoch JD2460200.5
perihelion date2022-10-30.52155
perihelion JD2459883.02155
argument of perihelion (°)242.40668
ascending node (°)352.76310
inclination (°)15.85082
eccentricity0.1859570
perihelion distance (AU)2.5562283
Tisserand w.r.t. Jupiter3.1
ΔV w.r.t. Earth (km/sec)11.1
semimajor axis (AU)3.1401637
mean anomaly (°)56.23279
mean daily motion (°/day)0.17712320
aphelion distance (AU)3.724
period (years)5.56
P-vector [x]-0.56690145
P-vector [y]-0.62615287
P-vector [z]-0.53530862
Q-vector [x]0.82306675
Q-vector [y]-0.45766225
Q-vector [z]-0.33631292
absolute magnitude15.49
phase slope0.15
uncertainty0
referenceMPEC 2023-X102
observations used397
oppositions12
arc length (days)8579
first opposition used2000
last opposition used2023
residual rms (arc-secs)0.80
perturbers coarse indicatorM-v
perturbers precise indicator003Ek
first observation date used2000-05-05.0
last observation date used2023-10-31.0
computer nameMPCLINUX
JD of orbit computation2456612.571474
perihelion JD uncertainty (days)2.2151E-04
argument of perihelion uncertainty (°)5.1596E-05
ascending node uncertainty (°)3.0182E-05
inclination uncertainty (°)2.1303E-05
eccentricity uncertainty 1.3892E-07
perihelion distance uncertainty (AU)4.2048E-07
Minimum Orbit Intersection Distances (in AU)
for orbit epoch: 2460200.5, reference: E2023-XA2
Mercury2.10985
Venus1.86684
Earth1.59105
Mars1.05073
Jupiter1.51005
Saturn5.6437
Uranus15.4278
Neptune26.2619

Observations

423 total observations over interval: 2000 05 05.21871 – 2023 10 31.223959
These data are available for download (format description).

Date (UT) J2000 RA J2000 Dec Magn Location Ref
2000 05 05.21871 12 49 50.22 -21 53 37.5 18.7 R 699 – Lowell Observatory-LONEOS MPS 286958
2000 05 05.23452 12 49 49.55 -21 53 36.7   699 – Lowell Observatory-LONEOS MPS 286958
2000 05 05.25043 12 49 48.80 -21 53 34.1   699 – Lowell Observatory-LONEOS MPS 286958
2000 05 05.26629 12 49 48.15 -21 53 33.5   699 – Lowell Observatory-LONEOS MPS 286958
2005 03 02.29448 10 06 03.74 +21 08 02.7 18.4 R 703 – Catalina Sky Survey MPS 128146
2005 03 02.30297 10 06 03.21 +21 08 01.8 19.7 R 703 – Catalina Sky Survey MPS 128146
2005 03 02.31149 10 06 02.79 +21 08 01.7 19.6 R 703 – Catalina Sky Survey MPS 128146
2005 03 02.31998 10 06 02.22 +21 08 00.9 19.6 R 703 – Catalina Sky Survey MPS 128146
2005 03 09.25760 09 59 40.59 +21 01 51.3 19.8 R 703 – Catalina Sky Survey MPS 128146
2005 03 09.26574 09 59 40.20 +21 01 51.0 20.0 R 703 – Catalina Sky Survey MPS 128146
2005 03 09.27375 09 59 39.69 +21 01 49.8 19.8 R 703 – Catalina Sky Survey MPS 128146
2005 03 09.28176 09 59 39.38 +21 01 48.6 19.2 R 703 – Catalina Sky Survey MPS 128146
2005 05 10.164427 09 48 45.450 +15 56 30.31 21.14 V 645 – Apache Point-Sloan Digital Sky Survey MPS 390533
2005 05 10.167899 09 48 45.548 +15 56 28.79 22.02   645 – Apache Point-Sloan Digital Sky Survey MPS 390533
2007 09 20.00054 23 47 45.47 +00 34 10.2 19.6 V 595 – Farra d'Isonzo MPS 217848
2007 09 20.03649 23 47 43.47 +00 34 06.7   595 – Farra d'Isonzo MPS 217848
2007 09 20.88420 23 47 00.04 +00 32 38.0   595 – Farra d'Isonzo MPS 217848
2007 09 20.91652 23 46 58.37 +00 32 34.7   595 – Farra d'Isonzo MPS 217848
2007 09 21.97496 23 46 03.94 +00 30 43.5   595 – Farra d'Isonzo MPS 217848
2007 09 22.01426 23 46 01.86 +00 30 40.1   595 – Farra d'Isonzo MPS 217848
2007 10 02.85783 23 37 04.73 +00 12 10.4   595 – Farra d'Isonzo MPS 218840
2007 10 02.89185 23 37 03.04 +00 12 07.8   595 – Farra d'Isonzo MPS 218840
2007 10 06.86798 23 34 01.49 +00 06 02.7   595 – Farra d'Isonzo MPS 218840
2007 10 06.92494 23 33 58.84 +00 05 58.9 20.5 V 595 – Farra d'Isonzo MPS 218840
2007 10 07.91629 23 33 15.47 +00 04 32.2 20.5 V 595 – Farra d'Isonzo MPS 218840
2007 10 07.95692 23 33 13.71 +00 04 30.5   595 – Farra d'Isonzo MPS 218840
2007 10 11.26545 23 30 54.68 +00 00 07.4 20.3 V G96 – Mt. Lemmon Survey MPS 220689
2007 10 11.27146 23 30 54.43 +00 00 06.6 20.5 V G96 – Mt. Lemmon Survey MPS 220689
2007 10 11.27746 23 30 54.18 +00 00 06.1 20.4 V G96 – Mt. Lemmon Survey MPS 220689
2007 10 11.28346 23 30 53.92 +00 00 06.4 20.4 V G96 – Mt. Lemmon Survey MPS 220689
2011 01 11.49849 12 52 11.31 -05 53 19.0 20.5 V G96 – Mt. Lemmon Survey MPS 365690
2011 01 11.50797 12 52 11.60 -05 53 23.6 20.6 V G96 – Mt. Lemmon Survey MPS 365690
2011 01 11.51737 12 52 11.92 -05 53 28.6 20.1 V G96 – Mt. Lemmon Survey MPS 365690
2011 03 09.32403 12 50 58.74 -11 40 02.9 19.3 V 703 – Catalina Sky Survey MPS 373484
2011 03 09.33155 12 50 58.45 -11 40 02.3 19.5 V 703 – Catalina Sky Survey MPS 373484
2011 03 09.33911 12 50 58.16 -11 40 04.6 19.4 V 703 – Catalina Sky Survey MPS 373484
2011 03 09.34671 12 50 57.84 -11 40 06.4 19.1 V 703 – Catalina Sky Survey MPS 373484
2011 03 11.39394 12 49 27.40 -11 46 26.3 19.7 V 691 – Steward Observatory, Kitt Peak-Spacewatch MPS 373484
2011 03 11.41167 12 49 26.47 -11 46 30.5 19.3 V 691 – Steward Observatory, Kitt Peak-Spacewatch MPS 373484
2011 03 11.42941 12 49 25.71 -11 46 32.6 19.4 V 691 – Steward Observatory, Kitt Peak-Spacewatch MPS 373484
2011 03 25.32667 12 37 18.98 -12 15 46.3 18.2 V 703 – Catalina Sky Survey MPS 375599
2011 03 25.33361 12 37 18.58 -12 15 47.9 18.4 V 703 – Catalina Sky Survey MPS 375599
2011 03 25.34059 12 37 18.19 -12 15 48.4 18.6 V 703 – Catalina Sky Survey MPS 375599
2011 03 25.34754 12 37 17.83 -12 15 49.2 19.2 V 703 – Catalina Sky Survey MPS 375599
2011 03 31.36654 12 31 25.289 -12 21 29.99 19.1 w F51 – Pan-STARRS 1, Haleakala MPS 377209
2011 03 31.38208 12 31 24.342 -12 21 30.46 19.2 w F51 – Pan-STARRS 1, Haleakala MPS 377209
2011 03 31.39866 12 31 23.322 -12 21 31.24 19.4 w F51 – Pan-STARRS 1, Haleakala MPS 377209
2011 03 31.41417 12 31 22.372 -12 21 31.81 19.3 w F51 – Pan-STARRS 1, Haleakala MPS 377210
2011 04 02.28667 12 29 31.27 -12 22 33.6 18.9 V G96 – Mt. Lemmon Survey MPS 377210
2011 04 02.29471 12 29 30.76 -12 22 33.8 18.9 V G96 – Mt. Lemmon Survey MPS 377210
2011 04 02.30277 12 29 30.30 -12 22 34.1 18.8 V G96 – Mt. Lemmon Survey MPS 377210
2011 04 02.31080 12 29 29.79 -12 22 34.3 18.7 V G96 – Mt. Lemmon Survey MPS 377210
2011 04 08.60116 12 23 20.68 -12 23 45.0 18.8 V E12 – Siding Spring Survey MPS 378683
2011 04 08.61535 12 23 19.75 -12 23 44.3 19.6 V E12 – Siding Spring Survey MPS 378683
2011 04 08.62964 12 23 18.96 -12 23 45.4 18.6 V E12 – Siding Spring Survey MPS 378683
2011 04 08.64394 12 23 18.09 -12 23 44.2 18.5 V E12 – Siding Spring Survey MPS 378683
2011 04 11.25140 12 20 50.11 -12 23 33.4 18.5   704 – Lincoln Laboratory ETS, New Mexico MPS 378683
2011 04 11.26452 12 20 49.33 -12 23 33.5 18.3   704 – Lincoln Laboratory ETS, New Mexico MPS 378683
2011 04 11.27668 12 20 48.63 -12 23 33.8 18.8   704 – Lincoln Laboratory ETS, New Mexico MPS 378683
2011 04 11.28906 12 20 47.90 -12 23 34.2 18.9   704 – Lincoln Laboratory ETS, New Mexico MPS 378683
2011 04 11.30124 12 20 47.29 -12 23 33.2 18.9   704 – Lincoln Laboratory ETS, New Mexico MPS 378683
2011 06 14.27737 12 06 38.943 -13 27 52.40 19.8 z F51 – Pan-STARRS 1, Haleakala MPS 385359
2011 06 14.28856 12 06 39.303 -13 27 55.04 19.9 z F51 – Pan-STARRS 1, Haleakala MPS 385359
2013 10 04.33536 01 16 06.38 +19 23 28.1 20.0 V G96 – Mt. Lemmon Survey MPS 479897
2013 10 04.34236 01 16 05.98 +19 23 27.4 20.0 V G96 – Mt. Lemmon Survey MPS 479897
2013 10 04.34938 01 16 05.65 +19 23 26.9 20.1 V G96 – Mt. Lemmon Survey MPS 479897
2013 10 04.44553 01 16 00.69 +19 23 19.3 20.1 V G96 – Mt. Lemmon Survey MPS 479897
2013 10 04.45669 01 16 00.13 +19 23 18.3 20.1 V G96 – Mt. Lemmon Survey MPS 479897
2013 10 04.46795 01 15 59.54 +19 23 17.5 20.5 V G96 – Mt. Lemmon Survey MPS 479897
2013 10 04.47925 01 15 58.93 +19 23 16.1 20.1 V G96 – Mt. Lemmon Survey MPS 479897
2013 10 24.31180 00 59 16.474 +18 38 44.30 20.4 r F51 – Pan-STARRS 1, Haleakala MPS 483479
2013 10 24.32396 00 59 15.870 +18 38 42.19 20.5 r F51 – Pan-STARRS 1, Haleakala MPS 483479
2013 10 24.47079 00 59 08.678 +18 38 16.06 20.3 i F51 – Pan-STARRS 1, Haleakala MPS 483479
2013 10 24.48334 00 59 08.048 +18 38 13.86 20.5 i F51 – Pan-STARRS 1, Haleakala MPS 483479
2015 02 11.11977 04 13 41.51 +39 22 06.2 21.1 V G96 – Mt. Lemmon Survey MPS 579540
2015 02 11.13399 04 13 41.74 +39 22 02.2 21.1 V G96 – Mt. Lemmon Survey MPS 579540
2015 02 11.14011 04 13 41.86 +39 22 00.8 21.0 V G96 – Mt. Lemmon Survey MPS 579540
2016 01 14.45554 10 08 58.601 +25 56 04.82 20.2 w F51 – Pan-STARRS 1, Haleakala MPS 671314
2016 01 14.46871 10 08 58.121 +25 56 07.03 20.3 w F51 – Pan-STARRS 1, Haleakala MPS 671314
2016 01 14.48185 10 08 57.650 +25 56 09.37 20.3 w F51 – Pan-STARRS 1, Haleakala MPS 671314
2016 01 14.49498 10 08 57.172 +25 56 11.63 20.2 w F51 – Pan-STARRS 1, Haleakala MPS 671314
2016 01 18.42005 10 06 29.96 +26 07 07.2 20.6 V 703 – Catalina Sky Survey MPS 673658
2016 01 18.42461 10 06 29.75 +26 07 07.8 20.5 V 703 – Catalina Sky Survey MPS 673658
2016 01 18.42917 10 06 29.61 +26 07 08.6 19.6 V 703 – Catalina Sky Survey MPS 673658
2016 01 18.43374 10 06 29.33 +26 07 08.3 20.1 V 703 – Catalina Sky Survey MPS 673658
2016 02 03.66135 09 53 07.10 +26 47 39.8 19.8 R D29 – Purple Mountain Observatory, XuYi Station MPS 678454
2016 02 03.67549 09 53 06.30 +26 47 41.3 19.9 R D29 – Purple Mountain Observatory, XuYi Station MPS 678454
2016 02 03.68963 09 53 05.43 +26 47 42.9 19.6 R D29 – Purple Mountain Observatory, XuYi Station MPS 678454
2016 02 04.39908 09 52 24.66 +26 49 05.4 19.7 V 703 – Catalina Sky Survey MPS 678454
2016 02 04.40447 09 52 24.39 +26 49 06.5 19.8 V 703 – Catalina Sky Survey MPS 678454
2016 02 04.41527 09 52 23.64 +26 49 07.7 20.1 V 703 – Catalina Sky Survey MPS 678454
2016 02 06.38447 09 50 29.697 +26 52 39.01 20.0 w F51 – Pan-STARRS 1, Haleakala MPS 681934
2016 02 06.39502 09 50 29.059 +26 52 40.13 19.8 w F51 – Pan-STARRS 1, Haleakala MPS 681934
